FW2996 Weather Reports


Display with metric or nautical units.
time (UTC)temp
F
wind
direction
speed
MPH
gust
MPH
rain 1hr
in
rain 24hr
in
rain mn
in
humidity
%
barometer
mb
20260504231456 79 202 3.0 14.0 0.00 0.00 0.00 64 1050.5
20260504230953 79 187 9.0 11.0 0.00 0.00 0.00 64 1050.4
20260504230449 79 146 6.0 15.0 0.00 0.00 0.00 64 1050.4
20260504225949 78 183 6.0 10.0 0.00 0.00 0.00 65 1050.8
20260504225445 79 193 4.0 10.0 0.00 0.00 0.00 65 1050.6
20260504224942 80 196 5.0 14.0 0.00 0.00 0.00 63 1050.8
20260504224439 79 176 9.0 13.0 0.00 0.00 0.00 64 1050.8
20260504223936 80 166 9.0 13.0 0.00 0.00 0.00 63 1050.8
20260504223432 80 221 7.0 10.0 0.00 0.00 0.00 63 1051.0
20260504222927 80 193 7.0 9.0 0.00 0.00 0.00 63 1051.0
20260504222425 80 157 10.0 19.0 0.00 0.00 0.00 63 1051.2
20260504221923 79 121 9.0 23.0 0.00 0.00 0.00 64 1051.1
20260504221419 80 170 3.0 13.0 0.00 0.00 0.00 63 1051.2
20260504220917 80 193 7.0 11.0 0.00 0.00 0.00 62 1051.4
20260504220413 80 210 9.0 13.0 0.00 0.00 0.00 61 1051.2
20260504215910 80 192 5.0 13.0 0.00 0.00 0.00 62 1051.1
20260504215407 80 178 5.0 10.0 0.00 0.00 0.00 62 1051.3
20260504214903 80 131 6.0 17.0 0.00 0.00 0.00 62 1051.3
20260504214400 80 171 4.0 13.0 0.00 0.00 0.00 63 1051.2
20260504213857 82 186 7.0 16.0 0.00 0.00 0.00 60 1051.3
20260504213353 81 171 9.0 17.0 0.00 0.00 0.00 60 1051.3
20260504212850 80 151 6.0 14.0 0.00 0.00 0.00 61 1051.4
20260504212346 81 176 3.0 16.0 0.00 0.00 0.00 62 1051.4
20260504211844 81 200 3.0 9.0 0.00 0.00 0.00 61 1051.5
20260504211340 81 228 6.0 16.0 0.00 0.00 0.00 61 1051.5
20260504210838 80 185 6.0 9.0 0.00 0.00 0.00 61 1051.8
20260504210334 81 171 7.0 15.0 0.00 0.00 0.00 59 1051.7
20260504205831 82 182 8.0 13.0 0.00 0.00 0.00 59 1051.9
20260504205329 81 192 8.0 11.0 0.00 0.00 0.00 60 1051.9
20260504204827 81 188 4.0 15.0 0.00 0.00 0.00 60 1051.9
20260504204326 82 196 6.0 13.0 0.00 0.00 0.00 58 1052.2
20260504203825 82 239 4.0 13.0 0.00 0.00 0.00 60 1051.9
20260504203321 81 135 7.0 13.0 0.00 0.00 0.00 59 1052.2
20260504202816 81 194 6.0 14.0 0.00 0.00 0.00 60 1052.3
20260504202314 82 167 8.0 17.0 0.00 0.00 0.00 59 1052.5
20260504201811 81 191 9.0 14.0 0.00 0.00 0.00 59 1052.5
20260504201308 81 126 8.0 17.0 0.00 0.00 0.00 61 1052.7
20260504200806 82 144 5.0 9.0 0.00 0.00 0.00 60 1052.7
20260504200302 81 183 6.0 13.0 0.00 0.00 0.00 59 1052.7
20260504195758 81 108 7.0 11.0 0.00 0.00 0.00 59 1052.7
20260504195254 80 211 6.0 11.0 0.00 0.00 0.00 60 1052.8
20260504194751 82 150 3.0 8.0 0.00 0.00 0.00 61 1052.9
20260504194247 80 208 8.0 13.0 0.00 0.00 0.00 59 1053.1
20260504193743 80 207 6.0 13.0 0.00 0.00 0.00 60 1052.9
20260504193241 81 151 6.0 14.0 0.00 0.00 0.00 60 1053.3
20260504192739 81 152 4.0 8.0 0.00 0.00 0.00 59 1053.4
20260504192237 79 155 10.0 14.0 0.00 0.00 0.00 63 1053.3
20260504191736 79 177 4.0 8.0 0.00 0.00 0.00 62 1053.4
20260504191232 80 197 7.0 14.0 0.00 0.00 0.00 63 1053.7
20260504190727 80 203 5.0 13.0 0.00 0.00 0.00 61 1053.6
20260504190224 79 193 4.0 9.0 0.00 0.00 0.00 61 1053.8
20260504185721 79 204 3.0 14.0 0.00 0.00 0.00 62 1053.8
20260504185218 78 199 5.0 11.0 0.00 0.00 0.00 63 1053.6
20260504184713 78 200 6.0 13.0 0.00 0.00 0.00 63 1053.9
20260504184209 78 160 6.0 8.0 0.00 0.00 0.00 63 1053.8
20260504183705 78 156 11.0 14.0 0.00 0.00 0.00 64 1054.1
20260504183203 78 199 5.0 16.0 0.00 0.00 0.00 63 1053.9
20260504182701 77 197 4.0 9.0 0.00 0.00 0.00 68 1054.3
20260504182158 77 213 6.0 10.0 0.00 0.00 0.00 66 1054.5
20260504181655 76 177 3.0 7.0 0.00 0.00 0.00 68 1054.4
20260504181153 77 222 6.0 14.0 0.00 0.00 0.00 66 1054.4
20260504180652 76 164 4.0 13.0 0.00 0.00 0.00 67 1054.6
20260504180150 75 185 9.0 11.0 0.00 0.00 0.00 69 1054.5
20260504175647 77 231 7.0 18.0 0.00 0.00 0.00 66 1054.4
20260504175143 76 168 7.0 10.0 0.00 0.00 0.00 66 1054.8
20260504174642 76 184 8.0 13.0 0.00 0.00 0.00 67 1054.7
20260504174138 76 150 7.0 9.0 0.00 0.00 0.00 67 1054.7
20260504173635 75 218 5.0 11.0 0.00 0.00 0.00 70 1055.0
20260504173132 76 198 3.0 9.0 0.00 0.00 0.00 68 1055.4
20260504172629 76 149 8.0 11.0 0.00 0.00 0.00 67 1055.2
20260504172125 74 215 4.0 15.0 0.00 0.00 0.00 70 1055.5
20260504171622 75 211 5.0 9.0 0.00 0.00 0.00 69 1055.3
20260504171119 74 229 7.0 11.0 0.00 0.00 0.00 70 1055.5
20260504170615 73 185 7.0 13.0 0.00 0.00 0.00 72 1055.7
20260504170113 74 206 4.0 13.0 0.00 0.00 0.00 71 1055.4
20260504150958 67 188 4.0 13.0 0.00 0.00 0.00 82 1056.2
20260504150455 67 196 5.0 10.0 0.00 0.00 0.00 82 1056.2
20260504140922 67 214 3.0 10.0 0.00 0.00 0.00 80 1056.3
20260504140418 66 191 4.0 9.0 0.00 0.00 0.00 81 1056.2
20260504130337 63 205 4.0 9.0 0.00 0.00 0.00 85 1056.2
20260504120300 60 182 2.0 6.0 0.00 0.00 0.00 89 1055.8
20260504110224 60 148 3.0 7.0 0.00 0.00 0.00 89 1055.8
20260504100148 58 160 2.0 2.0 0.00 0.00 0.00 91 1055.9
20260504090111 59 175 2.0 4.0 0.00 0.00 0.00 88 1056.3
20260504081541 60 174 2.0 6.0 0.00 0.00 0.00 85 1056.6
20260504081037 61 156 3.0 7.0 0.00 0.00 0.00 84 1056.8
20260504080534 61 159 2.0 4.0 0.00 0.00 0.00 84 1056.5
20260504050346 64 193 6.0 7.0 0.00 0.00 0.00 69 1058.8
20260504045843 64 168 6.0 11.0 0.00 0.00 0.00 69 1058.8
20260504045338 64 172 2.0 4.0 0.00 0.00 0.00 69 1058.7
20260504044835 64 178 9.0 11.0 0.00 0.00 0.00 67 1058.9
20260504044332 64 153 2.0 6.0 0.00 0.00 0.00 68 1058.7
20260504043830 64 185 4.0 9.0 0.00 0.00 0.00 66 1058.7
20260504043327 64 169 4.0 9.0 0.00 0.00 0.00 66 1058.7
20260504042824 64 182 4.0 8.0 0.00 0.00 0.00 66 1059.0
20260504042320 64 177 2.0 4.0 0.00 0.00 0.00 65 1058.8
20260504041817 65 147 3.0 9.0 0.00 0.00 0.00 64 1058.8
20260504041313 65 149 4.0 8.0 0.00 0.00 0.00 63 1058.9
20260504040809 64 170 2.0 7.0 0.00 0.00 0.00 63 1059.0
20260504040307 65 182 4.0 4.0 0.00 0.00 0.00 63 1058.7
20260504035803 65 166 2.0 6.0 0.00 0.00 0.00 62 1058.8
20260504035300 65 178 2.0 6.0 0.00 0.00 0.00 62 1058.9
20260504034757 65 155 3.0 7.0 0.00 0.00 0.00 62 1059.0
20260504034255 65 150 3.0 8.0 0.00 0.00 0.00 61 1058.9
20260504033752 64 162 2.0 7.0 0.00 0.00 0.00 61 1058.9
20260504033249 64 134 4.0 4.0 0.00 0.00 0.00 63 1058.8
20260504032746 64 193 2.0 2.0 0.00 0.00 0.00 61 1058.9
20260504032243 64 195 1.0 1.0 0.00 0.00 0.00 61 1058.7
20260504031740 64 195 0.0 1.0 0.00 0.00 0.00 62 1058.8
20260504031237 64 195 1.0 1.0 0.00 0.00 0.00 61 1058.8
20260504030733 65 195 0.0 0.0 0.00 0.00 0.00 60 1058.8
20260504030230 65 195 1.0 1.0 0.00 0.00 0.00 59 1058.9
20260504025727 65 195 0.0 1.0 0.00 0.00 0.00 60 1058.8
20260504025224 65 195 1.0 1.0 0.00 0.00 0.00 59 1058.9
20260504024721 65 195 0.0 0.0 0.00 0.00 0.00 58 1058.9
20260504024217 66 195 1.0 2.0 0.00 0.00 0.00 58 1058.8
20260504023714 66 195 2.0 2.0 0.00 0.00 0.00 57 1058.9
20260504023210 66 156 1.0 1.0 0.00 0.00 0.00 57 1058.7
20260504022706 66 156 1.0 2.0 0.00 0.00 0.00 57 1058.7
20260504022203 66 151 1.0 1.0 0.00 0.00 0.00 56 1058.6
20260504021700 67 150 0.0 3.0 0.00 0.00 0.00 56 1058.7
20260504021157 67 189 1.0 1.0 0.00 0.00 0.00 56 1058.6
20260504020654 67 189 0.0 2.0 0.00 0.00 0.00 55 1058.6
20260504020149 67 197 1.0 1.0 0.00 0.00 0.00 55 1058.8
20260504015646 67 197 1.0 2.0 0.00 0.00 0.00 56 1058.6
20260504015137 68 197 1.0 2.0 0.00 0.00 0.00 53 1058.8
20260504014633 68 190 0.0 1.0 0.00 0.00 0.00 53 1058.4
20260504014130 68 190 0.0 1.0 0.00 0.00 0.00 52 1058.4
20260504013628 68 190 1.0 3.0 0.00 0.00 0.00 52 1058.4
20260504013124 69 173 1.0 2.0 0.00 0.00 0.00 51 1058.3
20260504012622 69 170 1.0 3.0 0.00 0.00 0.00 50 1058.2
20260504012120 69 148 3.0 3.0 0.00 0.00 0.00 49 1058.2
20260504011616 70 131 2.0 3.0 0.00 0.00 0.00 49 1058.2
20260504011113 70 164 2.0 4.0 0.00 0.00 0.00 48 1058.1
20260504010609 70 144 3.0 4.0 0.00 0.00 0.00 48 1058.1
20260504010105 71 159 2.0 4.0 0.00 0.00 0.00 48 1058.2
20260504005602 71 171 1.0 4.0 0.00 0.00 0.00 48 1058.2
20260504005059 71 185 2.0 3.0 0.00 0.00 0.00 46 1058.3
20260504004557 72 172 3.0 6.0 0.00 0.00 0.00 46 1058.0
20260504004054 73 191 3.0 7.0 0.00 0.00 0.00 45 1058.2
20260504003549 73 186 5.0 9.0 0.00 0.00 0.00 43 1058.0
20260504003046 73 186 2.0 7.0 0.00 0.00 0.00 45 1058.2
20260504002543 73 178 3.0 6.0 0.00 0.00 0.00 43 1058.3
20260504002041 73 138 3.0 6.0 0.00 0.00 0.00 42 1058.1
20260504001538 74 214 7.0 8.0 0.00 0.00 0.00 41 1058.2
20260504001034 74 206 4.0 7.0 0.00 0.00 0.00 40 1058.4
20260504000532 74 201 3.0 11.0 0.00 0.00 0.00 42 1058.4
20260504000029 74 194 6.0 13.0 0.00 0.00 0.00 41 1058.4
20260503235527 74 155 3.0 9.0 0.00 0.00 0.00 41 1058.7
20260503235024 74 173 2.0 8.0 0.00 0.00 0.00 41 1058.7
20260503234521 75 155 4.0 8.0 0.00 0.00 0.00 40 1058.9
20260503234020 75 126 3.0 9.0 0.00 0.00 0.00 40 1058.7
20260503233515 76 180 3.0 9.0 0.00 0.00 0.00 40 1058.9
20260503233012 76 184 3.0 9.0 0.00 0.00 0.00 40 1058.5
20260503232509 76 132 7.0 10.0 0.00 0.00 0.00 39 1058.5
20260503232006 76 208 4.0 7.0 0.00 0.00 0.00 40 1058.8